Location: Lynch Observatory
(39.9540°N, 75.1861°W)
Time: 18:54:50
(UTC-04:00)

CAS-4B - Pass Details

Date: 28 April 2024
Orbit: 474 x 492 km, 43.0° (Epoch: 28 May)

Event Time Altitude Azimuth Distance (km) Brightness Sun altitude
Exits shadow 03:17:15 27° 78° (ENE) 943 ? -26.8°
Drops below altitude 10° 03:19:11 10° 89° (E) 1,659 ? -26.6°
Enters shadow 04:23:57 -54° 290° (WNW) 10,939 ? -17.7°
Maximum altitude 04:54:28 53° 206° (SSW) 595 ? -12.9°
